Location: Fountain Hills
(33.6120°N, 111.7170°W)
Time: 07:50:52
(UTC-07:00)

Hamsat - Visible Passes

Search period start: 27 April 2017 00:00
Search period end: 07 May 2017 00:00
Orbit: 586 x 618 km, 97.6° (Epoch: 25 April)

Date Brightness Start Highest point End Pass type
(mag) Time Alt. Az. Time Alt. Az. Time Alt. Az.
27 Apr ? 03:23:58 10° ENE 03:25:25 11° E 03:26:52 10° ESE visible
27 Apr ? 04:57:14 10° N 05:01:23 47° WNW 05:05:30 10° SSW visible
28 Apr ? 03:34:34 10° NE 03:37:16 16° E 03:39:57 10° SE visible
28 Apr ? 05:09:12 10° N 05:13:05 34° WNW 05:16:57 10° SW visible
29 Apr ? 03:45:44 10° NE 03:49:07 22° E 03:52:27 10° SSE visible
30 Apr ? 03:57:06 10° NE 04:00:55 30° E 04:04:42 10° SSE visible
01 May ? 04:08:37 10° NNE 04:12:43 42° E 04:16:47 10° S visible
02 May ? 04:20:14 10° NNE 04:24:30 60° E 04:28:43 10° S visible
03 May ? 04:31:56 10° NNE 04:36:15 85° ESE 04:40:31 10° S visible
04 May ? 04:43:42 10° N 04:47:59 68° WNW 04:52:13 10° SSW visible
05 May ? 03:22:31 10° ENE 03:23:43 11° E 03:24:54 10° ESE visible
05 May ? 04:55:33 10° N 04:59:42 48° WNW 05:03:48 10° SSW visible
06 May ? 03:32:59 10° ENE 03:35:34 15° E 03:38:07 10° SE visible
